Location: Rounton
(54.4000°N, 1.3500°W)
Time: 14:28:41
(UTC+00:00)

Transit 4A - Pass Details

Date: 02 December 2021
Orbit: 864 x 981 km, 66.8° (Epoch: 20 January)

Event Time Altitude Azimuth Distance (km) Brightness Sun altitude
Rises 23:22:52 0° 281° (W) 3,517 - -57.1°
Reaches altitude 10° 23:25:45 10° 293° (WNW) 2,597 - -57.2°
Maximum altitude 23:30:49 27° 350° (N) 1,707 - -57.4°
Drops below altitude 10° 23:36:01 10° 47° (NE) 2,669 - -57.5°
Sets 23:39:02 0° 60° (ENE) 3,634 - -57.6°
